Погода в Надыме

Погода в Надыме : погода сейчас, прогноз погоды и архив. Всё, что Вы хотите узнать о погоде в Надыме!

Поиск расширенной информации на нашем сайте:

Другие новости

Новости СМИ2

Главная страница сайта

Новости сайта

03.07.2017

Напоминаем, что на нашем специализированном сайте Метеоцентр.Азия вы можете получить высокодетализированные автоматические прогнозы погоды по пунктам России, СНГ и мира в авиационном формате (включающие направление и скорость ветра, видимость, явления погоды, количество и форму облачности, нижнюю и верхнюю границу облачности).

Рекомендуем: полезная сауна турецкая цена любовная

Погода в Надыме - сегодня

Время (UTC), дата Ветер
(°,м/с) 
Видим.   Явления Облачность Т
(°С)
Тd
(°С)
f(%) Тe
(°С)
Pmin
(гПа)
dP
(гПа)
Po
(мм)
O2
(г/м3)
Тmin Tmax R s Состояние
почвы
12 20.02.18 010 (С) 10 км    5/0 верхняя 
[Ci fib]
-27.8 -30.3 79 -28  1027.9  0.4  769  347           
18 20.02.18 тихо ()   10 км  слаб. снег  10/10 300 м 
[Sc]
-31.6 -33.8 81 -32  1028.2  0.2  770  353           
21 20.02.18 тихо ()   4000 м  слаб. снег  10/10 300 м 
[Sc]
-32.3 -34.5 81 -32  1028.6  0.4  770  354           
00 21.02.18 тихо ()   10 км  слаб. снег  10/10 300 м 
[Sc]
-32.9 -35.2 80 -33  1028.7  0.2  770  355           
03 21.02.18 050 (СВ) 4000 м  слаб. снег  10/10 300 м 
[Sc]
-31.2 -33.4 81 -32  1028.9  0.2  770  352  -35    0.2  64  равномерный
сухой снег
100% 
06 21.02.18 070 (В) 10 км  слаб. снег  10/6 300 м средняя 
[Frnb|As op]
-27.7 -30.3 78 -31  1029  0.1  770  347           
09 21.02.18 050 (СВ) 10 км  слаб. снег  10/8 300 м средняя 
[Frnb|As op]
-25.6 -28.3 78 -29  1028.8  -0.2  770  344           
12 21.02.18 030 (СВ) 10 км  {снег}  8/0 средняя 
[Ac trans]
-26.7 -28.7 83 -27  1028.2  -0.6  770  346           
15 21.02.18 030 (СВ) 10 км    ясно 
-29.6 -31.3 85 -30  1028  -0.2  770  350    -25.1  0.0     
18 21.02.18 010 (С) 10 км    ясно 
-33.8 -36.2 79 -35  1027.2  -0.8  769  356           
21 21.02.18 010 (С) 10 км    ясно 
-31.2 -33.3 82 -32  1026.7  -0.5  768  352           
00 22.02.18 010 (С) 10 км    ясно 
-32 -34 82 -33  1025.8  -0.9  768  352           
03 22.02.18 010 (С) 10 км    3/0 верхняя 
[Ci fib]
-30.2 -32.2 83 -34  1025.1  -0.7  767  350  -34.7      64  равномерный
сухой снег
100% 
06 22.02.18 020 (С) 10 км    4/0 верхняя 
[Ci fib]
-27.8 -29.7 84 -31  1024.5  -0.7  767  346           
09 22.02.18 020 (С) 10 км    6/0 верхняя 
[Ci fib]
-25.5 -27.5 83 -29  1023.9  -0.6  766  342           
12 22.02.18 360 (С) 10 км    10/0 средняя, верхняя 
[Ac trans|Ci fib]
-26.3 -28.1 85 -31  1023.5  -0.4  766  343           
15 22.02.18 330 (СЗ) 10 км  ледяные иглы{снег}  4/0 верхняя 
[Ci fib]
-31.1 -33.1 83 -32  1023.5  766  350    -24.9  0.0     
18 22.02.18 340 (С) 10 км  слаб. снег  10/0 средняя 
[As op]
-31.9 -34.1 81 -36  1023.8  0.4  766  352           
21 22.02.18 320 (СЗ) 10 км  слаб. снег  10/3 100 м средняя 
[Frnb|As op]
-35 -37.4 79 -36  1023.3  -0.6  766  356           
00 23.02.18 320 (СЗ) 10 км  слаб. снег  10/5 200 м средняя 
[Frnb|As op]
-32.3 -34.5 81 -33  1023.2  766  352           
03 23.02.18 320 (СЗ) 10 км  слаб. снег  10/5 200 м средняя 
[Frnb|As op]
-30.9 -32.9 82 -32  1022.7  -0.6  765  350  -35    0.0  64  равномерный
сухой снег
100% 
06 23.02.18 350 (С) 4000 м  слаб. снег  10/6 200 м средняя 
[Frnb|As op]
-27.6 -29.3 85 -31  1021.9  -0.7  765  345           
09 23.02.18 320 (СЗ) 10 км  {снег}  10/10 200 м 
[St]
-24.2 -25.9 86 -27  1021.2  -0.7  764  340           
12 23.02.18 320 (СЗ) 10 км  слаб. снег  10/10 1000 м 
[Sc]
-23.7 -25.1 88 -27  1020.5  -0.7  764  339           
15 23.02.18 290 (З) 10 км  слаб. снег  10/10 1000 м 
[Sc]
-23.7 -25.2 87 -24  1019.2  -1.2  763  338    -23.4  0.0     
Время (UTC), дата Ветер
(°,м/с) 
Видим.   Явления Облачность Т
(°С)
Тd
(°С)
f(%) Тe
(°С)
Pmin
(гПа)
dP
(гПа)
Po
(мм)
O2
(г/м3)
Тmin Tmax R s Состояние
почвы

Для получения пояснительной информации подведите курсор к названию столбца.

ПОГОДА в Надыме - архив

Всё, что Вы хотите узнать о погоде в Надыме - удобно и подробно!

Выберите нужную дату (начиная с 1 января 2015* года) и нажмите кнопку "Найти".
Будут отображены архивные сводки погоды по пункту Надым, начиная с указанной даты.


Отображать данные в формате CSV (для использования в таблицах Excel)


Внимание! Наш архив погоды предназначен исключительно для личного некоммерческого использования в познавательных целях. Если Вам необходимы официальные справки о состоянии погоды (для производственных, юридических, коммерческих и т.п. целей), обращайтесь в органы Росгидромета.

*Примечание: данная дата относится к архиву по метеостанциям СССР (Россия, СНГ, Балтия).
Архив по метеостанциям Зарубежной Европы и Азии (кроме Китая) хранится 10 дней, по другим регионам земного шара (Китай, Африка, Америка, Австралия, Океания) - 1 день.

Надым - район местоположения метеостанции


Название, широта, долгота, высота метеостанции:
Надым 65.6°ш. 72.7°д. 12 м над ур. моря [Российская Федерация]

Дополнительная информация

В oтличие oт бoльшинства пoгoдных сайтoв мы публикуем пoдрoбную метеoинфoрмацию в детальнoм прoфессиoнальнoм фoрмате.

Характеристики температуры и влажнoсти вoздуха измеряются на высoте 2 м в тени вдали oт зданий и деревьев.
Скoрoсть ветра измеряется на высoте 10 м (на урoвне рoста челoвека скoрoсть ветра ниже в 1.5-2 раза). Если метеoстанция нахoдится в гoрoде или в лесу, тo скoрoсть ветра занижена на 2-4 м/с пo сравнению с oткрытым местoм. Скoрoсть ветра над акватoриями крупных рек и oзёр, а также на вершинах хoлмoв на 2-5 м/с выше, чем в oбычных услoвиях.
Атмoсфернoе давление в разных тoчках местнoсти мoжет значительнo oтличаться oт давления на метеoстанции, в зависимoсти oт услoвий рельефа (при пoдъёме на 10 м давление пoнижается примернo на 1 мм рт.ст.).